Snowfall_Accumulation
0.0 0.0 0.0 0.0 0.0 0.0 0.0 0.0 0.0 0.0 0.0 0.0 0.0 0.0 0.0 0.0 0.0 0.0 0.0 0.0 0.0 0.2 0.0 0.0 0.0 0.0 0.0 0.0 0.0 0.0 0.0 0.0 0.0 0.1 0.0 0.1 0.0 0.0 0.0 0.0 0.0 0.0 0.1 0.2 0.3 0.8 0.0 0.0 0.0 0.0 0.0 0.0 0.0 0.0
0.0 0.0 0.0 0.0 0.0 0.0 0.0 0.0 0.0 0.0 0.0 0.0 0.0 0.0 0.0 0.0 0.0 0.0 0.0 0.0 0.0 0.0 0.0 0.0 0.0 0.0 0.0 0.0 0.0 0.0 0.0 0.0 0.0 0.2 0.1 0.0 0.0 0.0 0.0 0.0 0.0 0.0 0.0 0.0 0.0 0.0 0.0 0.0 0.0 0.0 0.0 0.0 0.0 0.0
0.0 0.0 0.0 0.0 0.0 0.0 0.0 0.0 0.0 0.0 0.0 0.0 0.0 0.0 0.0 0.0 0.0 0.0 0.0 0.0 0.0 0.2 0.0 0.0 0.0 0.0 0.0 0.0 0.0 0.0 0.0 0.0 0.0 0.0 0.1 0.2 0.2 0.0 0.0 0.0 0.0 0.0 0.0 0.0 0.0 0.0 0.0 0.0 0.0 0.0 0.0 0.0 0.0 0.0
0.0 0.0 0.0 0.0 0.0 0.0 0.0 0.0 0.0 0.0 0.0 0.0 0.0 0.0 0.0 0.0 0.0 0.0 0.0 0.0 0.0 0.2 3.9 0.1 0.0 0.0 0.0 0.0 0.0 0.0 0.0 0.0 0.0 0.4 0.5 0.5 0.6 0.0 0.0 0.0 0.0 0.0 0.0 0.0 0.0 0.0 0.0 0.0 0.0 0.0 0.0 0.0 0.0 0.0
0.0 0.0 0.0 0.0 0.0 0.0 0.0 0.0 0.0 0.0 0.0 0.0 0.0 0.0 0.0 0.0 0.0 0.0 0.0 0.0 0.0 0.3 4.5 1.0 0.0 0.0 0.0 0.0 0.0 0.0 0.0 0.0 0.2 0.7 1.4 1.2 0.1 0.2 0.0 0.0 0.0 0.0 0.0 0.0 0.0 0.0 0.0 0.0 0.0 0.0 0.0 0.0 0.0 0.0
0.0 0.0 0.0 0.0 0.0 0.0 0.0 0.0 0.0 0.0 0.0 0.0 0.0 0.0 0.0 0.0 0.0 0.0 0.9 0.0 0.0 0.0 2.9 8.1 0.0 0.0 0.0 0.0 0.0 0.0 0.0 0.0 0.8 0.4 1.8 0.0 0.0 0.3 1.6 0.2 0.0 0.0 0.0 0.0 0.0 0.0 0.0 0.0 0.0 0.0 0.0 0.0 0.0 0.0
0.0 0.0 0.0 0.0 0.0 0.0 0.0 0.0 0.0 0.0 0.0 0.0 0.0 0.0 0.0 0.0 0.0 0.2 1.0 0.0 0.0 0.0 4.2 19.3 7.6 0.1 0.0 0.0 0.0 0.0 0.0 0.0 1.4 1.4 0.4 0.8 0.3 1.2 1.0 0.0 0.0 0.0 0.0 0.0 0.0 0.0 0.0 0.0 0.0 0.0 0.0 0.0 0.0 0.0
0.0 0.0 0.0 0.0 0.0 0.0 0.0 0.0 0.0 0.0 0.0 0.0 0.0 0.0 0.0 0.0 0.0 0.0 0.0 0.0 0.0 1.5 4.5 25.7 16.0 5.6 0.0 0.2 0.7 0.0 0.0 0.2 2.7 1.1 0.1 0.2 0.2 1.1 2.3 0.0 0.0 0.0 0.0 0.0 0.0 0.0 0.0 0.0 0.0 0.0 0.0 0.0 0.0 0.0
0.0 0.0 0.0 0.0 0.0 0.0 0.0 0.0 0.0 0.0 0.0 0.0 0.0 0.0 0.0 0.0 0.1 0.0 0.0 0.0 0.0 0.2 22.3 12.8 12.7 7.4 1.2 0.3 0.6 1.0 0.0 4.6 0.2 2.3 0.0 0.1 0.8 3.7 0.0 0.0 0.1 0.0 0.0 0.0 0.0 0.0 0.0 0.0 0.0 0.0 0.0 0.0 0.0 0.0
0.0 0.0 0.0 0.0 0.0 0.0 0.0 0.0 0.0 0.0 0.0 0.0 0.0 1.3 5.5 0.0 0.0 0.0 0.0 2.9 11.1 11.9 10.0 10.8 3.2 5.8 2.3 3.7 2.7 3.9 4.7 5.4 9.4 1.8 0.0 3.1 0.2 0.0 0.0 0.2 0.1 0.0 0.0 0.0 2.9 1.7 0.5 1.1 0.2 0.1 0.0 0.0 0.0 0.0
0.0 0.0 0.0 0.0 0.0 0.0 0.0 0.0 0.0 0.0 0.0 1.8 8.7 9.0 1.2 0.0 0.7 0.0 21.9 25.4 18.7 19.7 5.8 4.2 2.7 4.9 1.3 6.1 4.3 2.7 9.9 7.6 11.8 3.4 2.2 3.8 3.6 0.6 0.0 0.2 0.0 0.0 0.1 0.0 0.0 0.1 0.9 1.5 2.0 1.0 0.4 1.5 0.9 1.5
0.0 0.0 0.0 0.0 0.0 0.0 0.0 0.0 0.0 0.0 4.1 1.8 1.7 1.4 2.6 13.5 25.4 30.8 27.5 9.1 3.8 2.4 2.9 1.7 0.7 0.8 2.9 1.5 4.3 8.3 10.8 9.8 9.5 2.4 6.7 4.5 1.5 0.9 1.2 0.4 0.2 0.1 0.0 0.1 0.1 1.1 0.5 0.5 0.8 0.8 1.9 2.4 2.2 2.2
0.0 0.0 0.0 0.0 0.0 0.0 0.0 0.0 0.0 0.0 0.0 2.3 9.5 25.8 26.5 28.4 42.2 29.4 14.9 6.6 4.8 2.9 3.2 1.9 3.3 2.9 4.5 5.3 10.7 10.7 13.5 9.3 4.1 9.4 4.3 1.7 0.3 0.0 0.3 1.1 1.0 0.7 0.1 0.5 0.9 0.0 0.3 0.3 0.3 0.3 0.2 0.1 0.0 0.0
0.0 0.0 0.0 0.0 0.0 0.0 0.0 0.0 0.0 0.0 0.7 9.8 26.9 35.5 25.1 24.1 11.9 7.8 3.9 3.0 2.7 3.6 4.0 3.6 4.5 5.5 4.0 8.7 9.7 15.0 8.3 4.2 12.2 7.5 3.3 1.3 1.1 0.7 0.2 0.3 0.4 0.5 0.7 1.0 2.8 2.8 1.4 0.8 0.3 0.1 0.0 0.1 0.0 0.0
0.0 0.0 0.0 0.0 0.0 0.0 0.0 0.0 0.0 0.0 1.2 24.8 22.1 22.7 12.8 5.7 3.7 4.1 3.3 3.6 4.0 5.7 8.0 8.9 7.9 6.4 10.0 13.7 8.2 6.3 11.8 9.0 7.3 5.5 3.2 2.8 3.0 2.9 2.5 1.3 0.4 0.6 0.8 1.5 1.2 2.1 3.2 1.9 0.7 0.0 0.0 0.0 0.3 0.3
0.0 0.0 0.0 0.0 0.0 0.0 0.0 0.0 0.0 1.2 9.8 22.9 21.5 11.5 3.3 2.5 3.4 2.6 3.5 4.6 4.2 5.6 6.8 9.7 11.6 13.4 12.7 9.7 10.6 5.6 7.2 7.0 6.3 5.2 5.0 4.3 4.5 4.0 3.8 3.1 2.5 2.3 1.8 1.4 1.8 1.8 2.2 1.9 1.3 0.7 0.5 0.1 0.2 0.9
0.0 0.0 0.0 0.0 0.0 0.0 0.0 0.0 4.6 25.7 31.1 27.5 11.5 4.2 3.8 2.8 3.0 3.6 4.2 4.8 4.5 6.0 8.8 7.9 15.6 10.9 8.3 11.1 7.7 5.4 6.9 6.4 4.9 3.4 2.9 3.1 3.1 3.1 2.7 2.1 1.8 1.7 1.5 1.2 1.2 1.2 1.7 2.2 2.4 1.4 1.8 1.5 1.2 0.8
0.7 0.0 0.0 0.0 0.0 0.0 3.7 7.1 25.5 34.7 31.7 11.9 4.4 3.5 2.1 1.8 2.0 2.1 3.1 3.9 4.7 5.0 6.3 9.5 5.3 8.0 6.4 5.3 5.9 7.3 4.6 2.9 1.8 1.7 2.2 2.1 1.7 1.5 1.4 1.2 0.9 0.7 1.0 1.9 1.6 1.7 1.1 1.7 1.6 1.3 1.0 0.8 0.8 1.0
2.7 0.0 0.0 0.0 0.0 6.6 34.8 44.4 29.5 32.3 10.7 4.3 3.8 2.2 1.2 0.8 0.4 0.9 1.7 2.7 3.0 2.6 3.7 9.6 10.8 5.8 4.6 5.3 4.7 4.8 3.6 1.3 1.5 1.7 1.6 1.2 1.1 1.0 0.9 1.1 1.0 1.2 2.2 1.9 0.7 0.5 0.5 0.4 0.8 0.4 1.0 0.7 1.0 0.8
0.7 0.0 0.4 0.0 0.0 28.2 53.1 42.9 19.5 13.4 8.0 3.9 2.3 2.0 1.8 1.3 1.8 1.5 2.6 2.8 3.5 5.8 10.5 14.0 8.3 6.5 5.3 5.8 2.7 2.1 2.0 1.1 0.0 0.2 1.0 0.3 0.1 0.0 0.1 0.0 0.2 0.5 0.8 0.6 0.5 0.7 0.5 0.7 0.5 0.2 0.6 0.5 1.0 1.1
1.9 6.4 4.6 1.6 11.0 22.7 34.5 27.2 20.0 7.6 3.6 2.3 3.2 1.9 2.7 2.4 2.4 3.5 4.4 4.6 8.4 13.5 11.0 7.9 6.7 6.4 3.9 3.1 1.8 0.8 1.2 0.5 0.1 0.0 0.2 0.6 0.2 0.1 0.0 0.0 0.0 0.0 0.0 0.3 0.2 0.1 0.5 0.3 0.7 0.5 0.3 0.8 0.7 1.1
5.9 4.7 18.0 11.1 45.3 46.2 37.7 18.2 10.5 5.5 3.3 3.7 2.1 2.6 3.2 3.3 2.4 2.8 2.7 8.1 12.8 8.0 7.3 7.0 6.2 3.8 1.5 1.3 2.1 1.6 1.6 0.4 0.1 0.0 0.1 0.1 0.0 0.0 0.0 0.0 0.0 0.0 0.0 0.0 0.0 0.1 0.0 0.1 0.1 0.6 0.7 1.1 0.9 0.5
1.9 8.4 35.7 38.8 51.8 47.0 32.3 10.3 9.7 7.0 4.7 4.2 1.4 2.9 4.6 3.4 3.3 2.9 7.7 6.2 5.2 5.3 5.2 3.9 2.3 3.3 3.1 3.2 2.8 1.9 1.1 0.4 0.3 0.4 0.1 0.0 0.0 0.0 0.0 0.0 0.0 0.0 0.2 0.1 0.0 0.0 0.0 0.0 0.1 0.1 0.0 0.0 1.2 1.8
1.7 40.5 53.4 54.1 38.6 32.9 19.1 16.9 10.7 6.8 7.1 5.5 4.1 4.2 3.1 1.3 4.4 7.0 7.7 3.9 3.7 3.4 3.6 3.7 2.4 2.5 2.7 3.6 3.8 3.3 2.6 1.4 0.4 0.0 0.7 0.3 0.1 0.0 0.0 0.0 0.0 0.0 0.1 0.2 0.0 0.0 0.0 0.0 0.1 0.1 0.0 0.0 0.8 1.6
62.3 73.1 49.4 49.3 27.5 15.8 10.1 7.3 6.5 6.8 6.3 4.2 3.5 2.3 2.8 3.6 6.2 6.4 3.4 2.7 3.0 3.4 4.0 3.9 3.0 3.0 2.5 1.8 1.9 1.4 1.2 1.5 2.6 2.7 0.4 1.5 1.5 1.0 0.3 0.0 0.4 0.2 0.0 0.2 0.1 0.1 0.0 0.0 0.0 0.0 0.0 1.2 2.0 2.6
69.9 35.6 26.5 11.8 7.3 4.6 3.1 2.8 3.2 3.3 3.1 4.5 5.2 4.7 3.5 5.6 8.1 5.8 2.2 3.4 3.9 4.0 3.5 2.1 1.9 1.4 0.9 0.8 1.0 1.8 2.1 1.5 1.3 2.7 1.5 2.0 1.6 2.3 2.2 0.2 1.5 0.7 0.2 0.2 1.0 0.8 0.3 0.1 0.1 0.0 0.8 1.2 1.9 3.0
46.5 25.0 9.0 1.8 2.7 2.6 2.4 2.3 2.7 3.6 4.4 4.9 3.5 2.8 3.0 10.2 2.8 2.7 3.9 4.4 3.8 2.4 0.7 1.1 2.2 1.9 1.3 1.4 1.3 1.8 2.0 2.2 2.0 1.5 2.0 4.3 4.0 2.6 1.3 2.2 2.3 1.4 1.1 0.8 1.5 1.4 1.7 1.1 0.7 1.1 1.8 2.2 2.2 3.3
11.2 5.6 3.4 3.0 2.5 1.3 1.8 1.6 2.5 3.9 3.7 2.7 3.3 3.1 3.8 2.2 2.6 3.6 3.9 4.1 1.3 0.0 0.8 1.3 1.8 2.4 2.2 1.9 1.9 2.6 2.8 3.1 3.4 3.2 4.5 5.2 5.4 5.0 4.2 3.2 2.6 2.9 3.4 2.3 2.4 2.9 2.7 2.6 2.1 2.9 2.6 2.6 1.4 1.8
2.5 2.3 3.3 4.2 3.3 2.5 2.3 2.0 1.6 1.8 1.6 2.3 1.9 1.6 2.2 3.1 4.2 3.8 3.9 1.3 0.0 0.8 1.0 1.5 1.9 2.0 2.8 2.9 2.8 3.5 3.5 3.6 3.1 2.5 2.0 2.4 4.3 6.0 5.6 4.8 5.5 5.6 3.7 3.8 2.6 3.4 4.1 6.0 6.7 8.0 7.6 5.9 4.3 3.7
0.4 0.2 0.3 0.3 1.5 3.1 2.2 1.9 1.5 1.8 2.1 2.2 1.8 2.1 2.4 4.2 6.2 4.7 1.3 0.1 0.0 1.4 1.8 2.4 2.3 2.4 3.5 3.4 3.5 3.3 4.1 4.1 3.8 2.8 3.1 2.2 2.9 4.1 5.8 5.8 5.9 6.4 6.1 6.0 6.8 6.8 5.2 6.3 6.4 6.4 5.8 5.6 5.6 4.9
0.2 0.0 0.2 0.2 0.3 1.0 1.6 1.8 1.9 1.7 1.8 2.3 1.5 0.9 1.6 3.2 4.3 3.0 0.6 0.6 1.4 2.0 2.7 3.4 3.8 4.5 4.6 5.0 5.0 4.6 4.5 5.2 5.3 5.6 5.3 6.2 5.5 5.1 5.8 6.5 6.6 7.2 7.1 7.0 6.5 5.9 5.9 5.1 4.6 4.7 4.5 4.5 3.9 4.2
0.3 0.1 0.0 0.1 0.1 0.4 0.8 1.0 0.8 1.8 2.4 1.8 2.5 2.1 2.2 1.9 1.8 1.8 1.7 1.3 1.8 2.3 2.7 3.4 3.9 5.0 5.6 5.5 5.5 5.5 4.9 5.1 5.0 6.1 5.3 4.8 5.6 4.8 5.8 7.4 7.2 6.6 7.3 7.7 7.0 7.7 7.4 7.4 6.8 6.2 6.4 6.0 5.9 5.6
2.0 1.2 0.8 0.6 1.0 1.1 0.5 0.5 0.6 1.1 0.9 1.2 1.6 1.8 2.1 2.2 1.8 1.8 2.0 2.0 2.6 2.5 2.7 4.1 4.7 4.7 4.5 4.6 4.9 5.2 5.2 5.1 6.1 6.2 6.7 7.4 7.6 8.4 8.5 7.3 6.6 7.8 8.4 8.1 7.7 8.5 8.8 7.9 7.8 7.1 7.0 7.2 6.6 6.3